Waarnemingen

Advertentie
Mijn weer
Elsenborn, België (6496): temperatuur & dauwpunt: 12.02.2018 21:00:00 - 18.02.2018 21:00:00 (CET)Elsenborn, België (6496): windsnelheid & windstoten: 12.02.2018 21:00:00 - 18.02.2018 21:00:00 (CET)Elsenborn, België (6496): windrichting: 12.02.2018 21:00:00 - 18.02.2018 21:00:00 (CET)Elsenborn, België (6496): luchtdruk: 12.02.2018 21:00:00 - 18.02.2018 21:00:00 (CET)Elsenborn, België (6496): zicht: 12.02.2018 21:00:00 - 18.02.2018 21:00:00 (CET)
Datum & Tijd tt [°C] td [°C] ff [km/u] ff [kn] fx [km/u] fx [kn] dd ppp [hPa] vv [km]
18.02.2018 21:00:00 -3,7 -5,3 4 2 7 4 N 1026,5 8
18.02.2018 20:00:00 -2,8 -5,5 4 2 4 2 N 1026,4 14
18.02.2018 19:00:00 -1,9 -5,7 4 2 - - N 1026,4 19
18.02.2018 18:00:00 0,8 -5,7 4 2 11 6 N 1025,7 19
18.02.2018 17:00:00 2,0 -5,5 4 2 14 8 N 1025,7 20
18.02.2018 16:00:00 3,0 -5,4 7 4 - - Z 1025,7 19
18.02.2018 15:00:00 3,0 -6,0 7 4 14 8 Z 1025,9 20
18.02.2018 14:00:00 2,5 -4,6 7 4 14 8 Z 1026,5 18
18.02.2018 13:00:00 1,8 -2,9 7 4 - - ZZW 1027,0 12
18.02.2018 12:00:00 0,8 -3,0 7 4 14 8 ZZW 1027,7 14
18.02.2018 11:00:00 -0,7 -2,6 4 2 11 6 N 1028,0 9
18.02.2018 10:00:00 -4,6 -4,9 4 2 - - N 1028,7 4,0
18.02.2018 09:00:00 -6,4 -7,1 4 2 4 2 N 1029,2 4,7
18.02.2018 08:00:00 -10,9 -11,7 4 2 4 2 N 1030,7 8
18.02.2018 07:00:00 -10,4 -11,8 4 2 - - N 1030,2 8
18.02.2018 06:00:00 -10,3 -11,8 4 2 4 2 N 1030,2 6
18.02.2018 05:00:00 -9,8 -11,5 4 2 0 0 N 1030,0 7
18.02.2018 04:00:00 -9,2 -10,7 4 2 - - N 1029,7 7
18.02.2018 03:00:00 -9,3 -11,0 4 2 4 2 N 1029,9 8
18.02.2018 02:00:00 -9,2 -10,5 4 2 4 2 N 1029,7 9
18.02.2018 01:00:00 -8,7 -10,3 4 2 - - N 1029,2 9
18.02.2018 00:00:00 -7,7 -9,0 4 2 4 2 N 1029,0 9
17.02.2018 23:00:00 -6,0 -7,2 4 2 4 2 N 1028,2 6
17.02.2018 22:00:00 -5,0 -5,8 4 2 - - N 1027,5 0,2
17.02.2018 21:00:00 -4,2 -5,5 4 2 7 4 N 1026,7 2,2
17.02.2018 20:00:00 -2,8 -3,2 4 2 7 4 N 1026,2 4,2
17.02.2018 19:00:00 -2,1 -3,1 4 2 - - N 1025,5 6
17.02.2018 18:00:00 0,0 -2,1 4 2 11 6 N 1024,0 12
17.02.2018 17:00:00 2,0 -2,4 7 4 14 8 NNO 1022,6 17
17.02.2018 16:00:00 2,4 -2,4 7 4 - - NO 1022,1 20
17.02.2018 15:00:00 2,9 -2,6 4 2 7 4 N 1021,7 20
17.02.2018 14:00:00 3,0 -2,8 4 2 14 8 N 1021,7 20
17.02.2018 13:00:00 2,4 -2,6 7 4 - - O 1021,7 15
17.02.2018 12:00:00 1,8 -2,3 4 2 11 6 N 1021,6 19
17.02.2018 11:00:00 0,5 -2,5 4 2 18 10 N 1021,8 19
17.02.2018 10:00:00 -0,5 -3,0 11 6 - - OZO 1022,0 20
17.02.2018 09:00:00 -1,2 -3,3 7 4 18 10 OZO 1022,3 20
17.02.2018 08:00:00 -1,6 -3,1 7 4 18 10 OZO 1022,2 20
17.02.2018 07:00:00 -1,5 -2,6 11 6 - - O 1022,6 19
17.02.2018 06:00:00 -1,7 -2,4 7 4 18 10 OZO 1023,5 14
17.02.2018 05:00:00 -1,5 -2,3 11 6 22 12 OZO 1023,7 15
17.02.2018 04:00:00 -1,7 -2,6 7 4 - - OZO 1024,7 18
17.02.2018 03:00:00 -4,7 -5,5 7 4 14 8 OZO 1026,2 16
17.02.2018 02:00:00 -5,9 -7,0 4 2 7 4 N 1026,7 18
17.02.2018 01:00:00 -6,2 -7,1 4 2 - - N 1028,2 19
17.02.2018 00:00:00 -5,9 -6,9 4 2 7 4 N 1028,5 18
16.02.2018 23:00:00 -4,8 -5,6 4 2 7 4 N 1028,7 16
16.02.2018 22:00:00 -4,6 -5,3 4 2 - - N 1029,2 11
16.02.2018 21:00:00 -3,7 -4,3 4 2 4 2 N 1029,2 14
16.02.2018 20:00:00 -3,0 -3,6 2 1 7 4 - 1029,0 7
16.02.2018 19:00:00 -2,0 -2,5 4 2 - - N 1028,7 17
16.02.2018 18:00:00 0,0 -3,0 4 2 11 6 N 1028,5 20
16.02.2018 17:00:00 3,5 -3,0 7 4 14 8 N 1027,2 20
16.02.2018 16:00:00 4,3 -2,3 4 2 - - N 1027,0 19
16.02.2018 15:00:00 4,0 -2,7 7 4 18 10 W 1027,4 20
16.02.2018 14:00:00 3,7 -1,9 7 4 18 10 W 1027,7 20
16.02.2018 13:00:00 2,5 -1,3 7 4 - - W 1028,0 19
16.02.2018 12:00:00 1,8 -1,4 7 4 14 8 W 1028,0 19
16.02.2018 11:00:00 0,8 0,1 7 4 14 8 W 1027,9 6
16.02.2018 10:00:00 0,3 0,0 7 4 - - WZW 1027,4 5
16.02.2018 09:00:00 -0,4 -0,4 4 2 14 8 N 1027,0 1,0
16.02.2018 08:00:00 -0,9 -0,9 7 4 11 6 WZW 1026,0 0,1
16.02.2018 07:00:00 -0,7 -0,9 7 4 - - WZW 1025,5 3,3
16.02.2018 06:00:00 0,2 -0,4 7 4 14 8 W 1024,7 7
16.02.2018 05:00:00 0,8 0,4 7 4 14 8 W 1023,8 5
16.02.2018 04:00:00 1,1 1,0 7 4 - - WZW 1023,2 3,2
16.02.2018 03:00:00 1,3 1,2 7 4 11 6 WNW 1022,6 4,2
16.02.2018 02:00:00 0,5 0,5 4 2 11 6 N 1022,2 0,2
16.02.2018 01:00:00 0,8 0,4 4 2 - - N 1021,2 2,0
16.02.2018 00:00:00 1,8 1,8 4 2 7 4 N 1020,7 5
15.02.2018 23:00:00 2,2 2,0 4 2 14 8 N 1019,7 2,2
15.02.2018 22:00:00 3,2 2,7 7 4 - - WNW 1018,6 5
15.02.2018 21:00:00 3,7 3,7 11 6 22 12 W 1017,7 5
15.02.2018 20:00:00 3,5 3,5 11 6 22 12 W 1017,2 0,2
15.02.2018 19:00:00 3,3 3,3 11 6 - - ZW 1016,7 0,2
15.02.2018 18:00:00 2,6 2,6 7 4 11 6 ZZW 1016,1 0,2
15.02.2018 17:00:00 2,2 2,2 7 4 14 8 ZZW 1015,7 0,2
15.02.2018 16:00:00 2,0 1,9 7 4 - - ZZW 1015,0 0,3
15.02.2018 15:00:00 1,8 1,7 7 4 14 8 ZZW 1014,5 4,1
15.02.2018 14:00:00 1,1 0,8 7 4 18 10 Z 1014,2 3,7
15.02.2018 13:00:00 0,6 0,5 7 4 - - ZZW 1014,2 2,4
15.02.2018 12:00:00 0,2 0,1 11 6 22 12 ZZW 1013,7 1,0
15.02.2018 11:00:00 0,1 -0,2 7 4 29 16 ZZW 1013,2 5
15.02.2018 10:00:00 -0,1 -0,1 14 8 - - ZZW 1013,1 2,0
15.02.2018 09:00:00 -0,3 -0,5 11 6 40 21 ZZW 1012,3 3,3
15.02.2018 08:00:00 -0,6 -0,9 22 12 47 25 ZZW 1012,0 3,7
15.02.2018 07:00:00 -1,1 -1,7 22 12 - - Z 1011,7 5
15.02.2018 06:00:00 -1,3 -2,1 18 10 43 23 Z 1012,3 3,5
15.02.2018 05:00:00 -1,3 -2,3 22 12 43 23 Z 1012,0 1,7
15.02.2018 04:00:00 -1,2 -2,3 22 12 - - Z 1012,3 1,1
15.02.2018 03:00:00 -1,2 -4,0 18 10 40 21 Z 1013,3 2,7
15.02.2018 02:00:00 -0,4 -5,6 22 12 43 23 Z 1013,3 20
15.02.2018 01:00:00 -0,7 -5,8 22 12 - - Z 1014,0 20
15.02.2018 00:00:00 -0,9 -6,4 22 12 43 23 Z 1014,5 20
14.02.2018 23:00:00 -1,1 -7,6 25 14 47 25 Z 1015,2 20
14.02.2018 22:00:00 -0,9 -7,8 18 10 - - Z 1015,5 20
14.02.2018 21:00:00 -0,8 -8,2 18 10 36 19 Z 1016,2 20
14.02.2018 20:00:00 -0,9 -7,2 18 10 36 19 Z 1016,2 20
14.02.2018 19:00:00 -1,0 -6,0 11 6 - - ZZO 1016,5 20
14.02.2018 18:00:00 -0,8 -5,9 11 6 25 14 Z 1016,7 19
14.02.2018 17:00:00 0,3 -5,8 11 6 32 18 Z 1016,3 17
14.02.2018 16:00:00 0,6 -5,8 18 10 - - Z 1016,1 19
14.02.2018 15:00:00 0,6 -5,6 18 10 40 21 Z 1016,2 19
14.02.2018 14:00:00 0,3 -5,8 18 10 40 21 Z 1016,2 20
14.02.2018 13:00:00 0,4 -7,9 18 10 - - Z 1016,5 20
14.02.2018 12:00:00 -0,2 -8,8 14 8 25 14 Z 1016,5 20
14.02.2018 11:00:00 -1,1 -8,7 14 8 25 14 Z 1017,1 20
14.02.2018 10:00:00 -2,6 -8,0 7 4 - - Z 1017,2 20
14.02.2018 09:00:00 -8,3 -10,2 4 2 4 2 N 1018,2 17
14.02.2018 08:00:00 -10,0 -12,0 4 2 7 4 N 1018,1 13
14.02.2018 07:00:00 -9,1 -11,5 4 2 - - N 1017,3 19
14.02.2018 06:00:00 -7,8 -10,3 4 2 11 6 N 1016,6 19
14.02.2018 05:00:00 -7,7 -10,0 4 2 11 6 N 1015,8 20
14.02.2018 04:00:00 -9,5 -12,0 4 2 - - N 1016,1 20
14.02.2018 03:00:00 -8,0 -10,7 4 2 18 10 N 1015,3 20
14.02.2018 02:00:00 -4,8 -9,3 11 6 22 12 Z 1014,2 20
14.02.2018 01:00:00 -4,3 -9,2 11 6 - - ZZO 1013,7 20
14.02.2018 00:00:00 -4,1 -8,7 14 8 25 14 ZZO 1013,2 20
13.02.2018 23:00:00 -4,0 -8,7 14 8 29 16 ZZO 1013,0 20
13.02.2018 22:00:00 -4,0 -8,2 11 6 - - ZZO 1012,8 20
13.02.2018 21:00:00 -4,5 -8,5 7 4 22 12 ZO 1012,7 20
13.02.2018 20:00:00 -3,2 -7,8 14 8 25 14 ZZO 1011,7 20
13.02.2018 19:00:00 -2,7 -7,1 14 8 - - ZZO 1011,5 20
13.02.2018 18:00:00 -2,2 -6,4 11 6 29 16 ZZO 1011,2 20
13.02.2018 17:00:00 -0,9 -6,4 18 10 32 18 ZZO 1011,0 20
13.02.2018 16:00:00 -0,1 -6,6 14 8 - - Z 1011,0 20
13.02.2018 15:00:00 0,1 -6,8 18 10 32 18 Z 1011,5 20
13.02.2018 14:00:00 0,1 -5,2 11 6 40 21 Z 1012,1 20
13.02.2018 13:00:00 -0,1 -5,0 14 8 - - Z 1012,7 20
13.02.2018 12:00:00 -1,0 -4,5 14 8 32 18 Z 1013,6 19
13.02.2018 11:00:00 -2,1 -3,7 14 8 29 16 Z 1014,2 18
13.02.2018 10:00:00 -4,0 -4,3 14 8 - - Z 1015,3 10
13.02.2018 09:00:00 -5,0 -5,3 14 8 29 16 Z 1016,2 3,4
13.02.2018 08:00:00 -4,9 -5,2 14 8 25 14 Z 1016,3 6
13.02.2018 07:00:00 -5,6 -6,1 7 4 - - ZZW 1016,7 7
13.02.2018 06:00:00 -6,1 -6,9 7 4 14 8 N 1017,2 10
13.02.2018 05:00:00 -7,9 -8,9 7 4 14 8 ZZW 1018,2 11
13.02.2018 04:00:00 -8,9 -10,1 4 2 - - N 1019,0 12
13.02.2018 03:00:00 -9,0 -10,1 4 2 11 6 N 1019,5 9
13.02.2018 02:00:00 -8,5 -10,5 4 2 11 6 N 1019,7 13
13.02.2018 01:00:00 -8,5 -9,9 4 2 - - N 1020,0 16
13.02.2018 00:00:00 -8,8 -10,1 0 0 0 0 N 1020,2 1,1
12.02.2018 23:00:00 -8,1 -8,7 4 2 7 4 N 1020,2 0,1
12.02.2018 22:00:00 -6,9 -8,3 4 2 - - N 1020,1 18
12.02.2018 21:00:00 -4,6 -6,1 7 4 11 6 ZW 1019,2 20

tt = temperatuur
td = dauwpunt
ff = windsnelheid
fx = windstoten
dd = windrichting
ppp = luchtdruk
vv = zicht

Weerstations in de omgeving